STARLINK-2385, 47804

Orbit data source: Space-Track

STARLINK-2385, 47804 is a payload satellite owned by SpaceX/Seattle (US) in LEO that was launched on Thu, 11 Mar 2021 UTC via an FALCON 9 launch vehicle from the Air Force Eastern Test Range (AFETR). Payload-class satellites include a variety of spacecraft equipped with specific instruments for various scientific and technological missions. These include communications satellites like Starlink; space stations such as the ISS; scientific satellites like the Hubble; Earth observation satellites from companies like Planet Labs, Umbra, and HawkEye 360; GPS; miniature CubeSats for education and research; and military/defense satellites.

Loading next visibility...
Identifier
47804, 2021-018T
Orbit
LEO
Country
Flag of USUS
Related business
Manufacturer
SpaceX/Seattle
Mission
Operational Commercial Communications
Bus & Motor
STARLINK, Unknown motor
Mass
260 kg wet, ~248 kg dry
Launch date (UTC)
2021-03-11 (5 years ago)
Launch vehicle
FALCON 9
Launch site
Air Force Eastern Test Range (AFETR)
Object type
Payload
Rocket body
Debris
Shape & HBR
Box + 1 Pan, 10.1 m
Radar Cross Section
13.562 m², Large (>1 m²)

Expand to show TLE details & history
Last TLE update: 3 days ago

TLE from 3 days ago
0 STARLINK-2385
1 47804U 21018T   26170.58761645  .00003368  00000-0  12019-3 0  9999
2 47804  53.1584 116.1284 0000920  91.8845 268.2262 15.31715315292508
Epoch: 2026-06-19T14:06Z
TLE epoch observation values (Epoch: 2026-06-19T14:06:10.061Z)
Latitude
0.00001°
Longitude
-3.22796°
Altitude
471.614 km
Speed
7.631 km/s
True Right ascension
07h 44m 30s
True Declination
0° 00' 00"
Sunlit
Object was in daylight at epoch
Visualization orbit readout
Latitude
Unknown
Longitude
Unknown
Altitude
Unknown
Speed
Unknown
Apparent Right ascension
Unknown
Apparent Declination
Unknown
Sunlit
N/A
Visualization observer readout
Local Sidereal Time
21:36:08
Azimuth
Unknown
Elevation
Unknown
Doppler factor
Unknown
Orbital elements
Apogee altitude
471.581 km
Perigee altitude
470.321 km
Semi-major axis
6,849.088 km
Eccentricity
0.00009
Inclination
53.1584°
RAAN
116.1284°
Arg. of periapsis
91.8845°
True anomaly
268.21566°
Mean anomaly
268.2262°
Eccentric anomaly
268.22093°
Mean motion
3.82908 °/min
Orbital period
94.02 mins
BSTAR
0.00012019
Loading maneuver chart data...
Computing Atmospheric mass density...
Loading historical data...
Loading historical data...
Loading historical data...
Loading historical data...
Loading historical data...
Loading historical data...
Loading historical data...

Documentation

Showing up to 5 results
|